Preston, MN

6:53 AM CDT on March 26, 2017 (GMT -0500)
Preston

Weather History for KFKA - June, 2014

Change the Weather History Date:

Wednesday, June 4, 2014

  Actual Average (KRST) Record (KRST)
Temperature  
Mean Temperature 68 °F -  
Max Temperature 75 °F 75 °F 93 °F (1934)
Min Temperature 60 °F 51 °F 32 °F (1945)
Cooling Degree Days 2    
Growing Degree Days 18 (Base 50)    
Moisture  
Dew Point 56 °F    
Average Humidity 67    
Maximum Humidity 88    
Minimum Humidity 48    
Precipitation  
Precipitation 0.00 in - - ()
Sea Level Pressure  
Sea Level Pressure 29.88 in    
Wind  
Wind Speed 6 mph (ESE)    
Max Wind Speed 12 mph    
Max Gust Speed 17 mph    
Visibility 10 miles    
Events      
Averages and records for this station are not official NWS values.
T = Trace of Precipitation, MM = Missing Value Source: NWS Daily Summary

Daily Weather History Graph

Daily Weather History Graph

Search for Another Location

Airport or City:

Trip Planner

Search our weather history database for the weather conditions in past years. The results will help you decide how hot, cold, wet, or windy it might be!

Date:

Astronomy

Jun. 04, 2014 Rise Set
Actual Time 5:28 AM CDT 8:45 PM CDT
Civil Twilight 4:53 AM CDT 9:21 PM CDT
Nautical Twilight 4:07 AM CDT 10:07 PM CDT
Astronomical Twilight 3:11 AM CDT 11:03 PM CDT
Moon 11:57 AM CDT (6/4) 12:36 AM CDT (6/4)
Length of Visible Light 16h 27m
Length of Day
15h 17m
Waxing Crescent, 39% of the Moon is Illuminated
Jun 4
Waxing Crescent
Jun 5
First Quarter
Jun 12
Full
Jun 19
Last Quarter
Jun 27
New

Hourly Weather History & Observations

Time (CDT) Temp. Dew Point Humidity Pressure Visibility Wind Dir Wind Speed Gust Speed Precip Events Conditions
12:12 AM 65.7 °F 56.5 °F 72% 29.86 in 10.0 mi SE 5.8 mph - N/A   Overcast
12:52 AM 66.2 °F 55.4 °F 68% 29.84 in 10.0 mi ESE 5.8 mph - N/A   Overcast
1:13 AM 65.7 °F 55.8 °F 70% 29.84 in 10.0 mi East 4.6 mph - N/A   Overcast
1:32 AM 65.5 °F 55.4 °F 70% 29.84 in 10.0 mi East 4.6 mph - N/A   Overcast
1:52 AM 65.5 °F 55.4 °F 70% 29.85 in 10.0 mi East 4.6 mph - N/A   Overcast
2:12 AM 64.4 °F 56.5 °F 75% 29.84 in 10.0 mi East 4.6 mph - N/A   Overcast
2:32 AM 63.9 °F 56.1 °F 76% 29.84 in 10.0 mi East 3.5 mph - N/A   Overcast
2:53 AM 64.9 °F 55.6 °F 72% 29.84 in 10.0 mi ESE 4.6 mph - N/A   Overcast
3:13 AM 64.8 °F 55.8 °F 73% 29.84 in 10.0 mi East 3.5 mph - N/A   Overcast
3:32 AM 64.4 °F 55.8 °F 73% 29.82 in 10.0 mi East 4.6 mph - N/A   Overcast
3:53 AM 63.5 °F 56.5 °F 78% 29.81 in 10.0 mi East 5.8 mph - N/A   Overcast
4:13 AM 62.8 °F 56.7 °F 80% 29.81 in 10.0 mi East 8.1 mph - N/A   Overcast
4:32 AM 62.4 °F 56.3 °F 80% 29.81 in 10.0 mi ENE 5.8 mph - N/A   Mostly Cloudy
4:53 AM 62.2 °F 56.3 °F 81% 29.81 in 10.0 mi East 8.1 mph - N/A   Scattered Clouds
5:12 AM 62.4 °F 56.3 °F 80% 29.82 in 10.0 mi ENE 6.9 mph - N/A   Mostly Cloudy
5:32 AM 61.9 °F 56.8 °F 84% 29.82 in 10.0 mi North 4.6 mph - N/A   Overcast
5:53 AM 62.2 °F 56.5 °F 81% 29.82 in 10.0 mi ESE 3.5 mph - N/A   Overcast
6:12 AM 61.3 °F 57.2 °F 86% 29.84 in 10.0 mi NNE 3.5 mph - N/A   Overcast
6:32 AM 60.8 °F 57.2 °F 88% 29.85 in 10.0 mi North 3.5 mph - N/A   Overcast
6:53 AM 60.8 °F 57.4 °F 88% 29.85 in 10.0 mi NNE 3.5 mph - N/A   Overcast
7:12 AM 61.2 °F 57.2 °F 87% 29.86 in 10.0 mi NE 4.6 mph - N/A   Overcast
7:32 AM 62.1 °F 57.4 °F 85% 29.86 in 10.0 mi ENE 4.6 mph - N/A   Overcast
7:53 AM 63.1 °F 57.4 °F 81% 29.86 in 10.0 mi NE 4.6 mph - N/A   Overcast
8:12 AM 63.5 °F 57.4 °F 80% 29.87 in 10.0 mi NE 4.6 mph - N/A   Overcast
8:32 AM 64.0 °F 57.7 °F 80% 29.87 in 10.0 mi NE 5.8 mph - N/A   Overcast
8:53 AM 65.5 °F 57.7 °F 76% 29.87 in 10.0 mi ENE 6.9 mph - N/A   Overcast
9:12 AM 66.2 °F 57.6 °F 74% 29.88 in 10.0 mi East 8.1 mph - N/A   Scattered Clouds
9:32 AM 67.3 °F 57.9 °F 72% 29.88 in 10.0 mi East 6.9 mph - N/A   Mostly Cloudy
9:53 AM 68.5 °F 57.6 °F 68% 29.89 in 10.0 mi East 8.1 mph - N/A   Mostly Cloudy
10:12 AM 69.3 °F 55.6 °F 62% 29.88 in 10.0 mi ESE 11.5 mph 17.3 mph N/A   Overcast
10:33 AM 69.1 °F 55.6 °F 62% 29.89 in 10.0 mi ESE 10.4 mph - N/A   Overcast
10:52 AM 69.4 °F 56.1 °F 62% 29.89 in 10.0 mi SE 10.4 mph - N/A   Overcast
11:13 AM 69.8 °F 56.3 °F 62% 29.90 in 10.0 mi ESE 6.9 mph - N/A   Overcast
11:32 AM 69.8 °F 56.1 °F 62% 29.90 in 10.0 mi ESE 9.2 mph - N/A   Overcast
11:53 AM 70.0 °F 56.8 °F 63% 29.90 in 10.0 mi ESE 5.8 mph - N/A   Overcast
12:12 PM 70.5 °F 56.5 °F 61% 29.90 in 10.0 mi SE 5.8 mph - N/A   Overcast
12:32 PM 70.3 °F 56.7 °F 62% 29.90 in 10.0 mi East 6.9 mph - N/A   Overcast
12:53 PM 71.6 °F 56.5 °F 59% 29.90 in 10.0 mi ESE 9.2 mph 16.1 mph N/A   Mostly Cloudy
1:13 PM 71.2 °F 56.5 °F 60% 29.90 in 10.0 mi ENE 8.1 mph - N/A   Mostly Cloudy
1:32 PM 72.0 °F 55.9 °F 57% 29.90 in 10.0 mi East 6.9 mph - N/A   Mostly Cloudy
1:53 PM 71.4 °F 57.4 °F 61% 29.90 in 10.0 mi ENE 5.8 mph - N/A   Mostly Cloudy
2:12 PM 71.8 °F 56.3 °F 58% 29.91 in 10.0 mi East 3.5 mph - N/A   Scattered Clouds
2:33 PM 73.6 °F 55.8 °F 54% 29.90 in 10.0 mi ESE 4.6 mph - N/A   Scattered Clouds
2:52 PM 73.4 °F 54.5 °F 51% 29.90 in 10.0 mi ESE 8.1 mph - N/A   Scattered Clouds
3:13 PM 74.5 °F 55.6 °F 52% 29.90 in 10.0 mi ENE 3.5 mph - N/A   Mostly Cloudy
3:32 PM 73.4 °F 54.5 °F 51% 29.90 in 10.0 mi East 5.8 mph - N/A   Overcast
3:52 PM 74.5 °F 53.8 °F 48% 29.90 in 10.0 mi ESE 4.6 mph - N/A   Mostly Cloudy
4:13 PM 74.3 °F 55.4 °F 52% 29.90 in 10.0 mi SSE 4.6 mph - N/A   Mostly Cloudy
4:32 PM 73.6 °F 55.9 °F 54% 29.90 in 10.0 mi SE 5.8 mph - N/A   Scattered Clouds
4:53 PM 75.0 °F 55.9 °F 51% 29.90 in 10.0 mi SSE 4.6 mph - N/A   Mostly Cloudy
5:12 PM 75.2 °F 54.3 °F 48% 29.90 in 10.0 mi ESE 5.8 mph - N/A   Scattered Clouds
5:32 PM 74.3 °F 56.1 °F 53% 29.90 in 10.0 mi South 5.8 mph - N/A   Clear
5:53 PM 73.6 °F 55.9 °F 54% 29.89 in 10.0 mi SE 5.8 mph - N/A   Mostly Cloudy
6:12 PM 73.8 °F 55.8 °F 53% 29.89 in 10.0 mi South 5.8 mph - N/A   Scattered Clouds
6:32 PM 74.3 °F 55.9 °F 53% 29.89 in 10.0 mi South 5.8 mph - N/A   Clear
6:53 PM 73.8 °F 56.8 °F 55% 29.89 in 10.0 mi South 5.8 mph - N/A   Clear
7:12 PM 73.2 °F 57.0 °F 57% 29.90 in 10.0 mi South 8.1 mph - N/A   Clear
7:32 PM 72.1 °F 57.7 °F 60% 29.91 in 10.0 mi South 5.8 mph - N/A   Clear
7:53 PM 71.2 °F 57.4 °F 61% 29.91 in 10.0 mi South 8.1 mph - N/A   Clear
8:12 PM 70.7 °F 57.0 °F 62% 29.91 in 10.0 mi SSE 6.9 mph - N/A   Clear
8:32 PM 69.4 °F 56.8 °F 64% 29.90 in 10.0 mi SSE 5.8 mph - N/A   Scattered Clouds
8:53 PM 68.5 °F 56.5 °F 65% 29.90 in 10.0 mi SSE 6.9 mph - N/A   Mostly Cloudy
9:12 PM 68.9 °F 56.5 °F 65% 29.91 in 10.0 mi SSE 3.5 mph - N/A   Overcast
9:33 PM 68.0 °F 56.8 °F 67% 29.92 in 10.0 mi SSE 5.8 mph - N/A   Overcast
10:12 PM 67.1 °F 56.8 °F 70% 29.93 in 10.0 mi SSE 4.6 mph - N/A   Overcast
10:33 PM 66.9 °F 57.2 °F 71% 29.94 in 10.0 mi South 3.5 mph - N/A   Overcast
10:52 PM 65.8 °F 56.8 °F 73% 29.94 in 10.0 mi South 5.8 mph - N/A   Mostly Cloudy
11:12 PM 65.3 °F 56.5 °F 73% 29.94 in 10.0 mi SSE 4.6 mph - N/A   Mostly Cloudy
11:33 PM 64.6 °F 56.3 °F 74% 29.94 in 10.0 mi SSE 4.6 mph - N/A   Mostly Cloudy
11:52 PM 63.7 °F 56.3 °F 77% 29.94 in 10.0 mi South 5.8 mph - N/A   Clear